Location: Austin
(30.3000°N, 97.7500°W)
Time: 11:08:58
(UTC-05:00)

Cosmos 1726 - Pass Details

Date: 03 April 2024
Orbit: 400 x 409 km, 82.5° (Epoch: 21 April)

Event Time Altitude Azimuth Distance (km) Brightness Sun altitude
Rises 06:10:19 0° 345° (NNW) 2,317 5.5 -15.0°
Reaches altitude 10° 06:12:24 10° 337° (NNW) 1,456 4.4 -14.5°
Maximum altitude 06:15:22 38° 267° (W) 626 2.1 -13.9°
Drops below altitude 10° 06:18:20 10° 197° (SSW) 1,456 4.2 -13.3°
Enters shadow 06:20:36 -1° 188° (S) 2,395 5.4 -12.8°
